• Join FlightAware (Why Join?)
  • Login
  • US Flag GB Flag 
00:22 EDT


 

Airport Tracker/Info


-or-


 

Live Flight TrackerFlight Track Log ✈ CTL22 ✈ 18-Jul-2013 ✈ KARB - KGRR

Flight Track Log - Related Links

Times and Time Zones

All times are in EDT time to prevent confusion due to time zone crossing. See the CTL22 flight status page for this flight to view local times or setup timezone preferences in your user account.

Time Position Orientation Groundspeed Altitude Reporting Facility
EDT Latitude Longitude Course Direction KTS MPH feet Rate Location/Type
22:07 42.4211 -83.8883 294° West 152 175 6,000  Level Cleveland Center
22:08 42.4383 -83.9397 294° West 151 174 6,100 -60 Climbing Cleveland Center
22:10 42.4164 -84.0043 245° Southwest  Level FlightAware Approximate
22:17 42.5165 -84.3241 297° West  Level Estimated
22:18 42.5287 -84.3709 290° West  Level FlightAware Approximate
22:19 42.5410 -84.4178 290° West  Level FlightAware Approximate
22:20 42.5532 -84.4646 290° West  Level FlightAware Approximate
22:21 42.5655 -84.5115 290° West  Level FlightAware Approximate
22:22 42.5777 -84.5583 289° West  Level FlightAware Approximate
22:23 42.5899 -84.6052 289° West  Level FlightAware Approximate
22:24 42.6020 -84.6521 289° West  Level FlightAware Approximate
22:25 42.6142 -84.6991 289° West  Level FlightAware Approximate
22:26 42.6263 -84.7460 289° West  Level FlightAware Approximate
22:27 42.6384 -84.7930 289° West  Level FlightAware Approximate
22:28 42.6505 -84.8399 289° West  Level FlightAware Approximate
22:29 42.6626 -84.8869 289° West  Level FlightAware Approximate
22:29 42.7697 -85.0547 298° West 157 181 5,100  Level Chicago Center
22:30 42.6746 -84.9340 289° West  Level FlightAware Approximate
22:31 42.6866 -84.9810 289° West  Level FlightAware Approximate
22:31 42.7856 -85.1119 291° West 160 184 4,500  Level Chicago Center
22:32 42.7028 -85.0257 299° West  Level Estimated
22:32 42.7997 -85.1692 289° West 160 184 3,900  Level Chicago Center
22:33 42.7180 -85.0710 295° West  Level FlightAware Approximate
22:33 42.8161 -85.2250 292° West 160 184 3,400  Level Chicago Center
22:34 42.7342 -85.1157 299° West  Level Estimated
22:34 42.8344 -85.2939 290° West 160 184 2,900  Level Chicago Center
22:35 42.7512 -85.1599 298° West  Level FlightAware Approximate
22:35 42.8497 -85.3481 291° West 156 180 2,500  Level Chicago Center
22:36 42.8661 -85.4042 292° West 157 181 2,100 -540 Descending Chicago Center
22:37 42.8778 -85.4644 285° West 160 184 1,500 -600 Descending Chicago Center
22:38 42.8792 -85.5136 272° West 143 165 900 -600 Descending Chicago Center
22:40 42.8667 -85.5167 294° West  Level FlightAware Approximate